This is the latest recevied weather packets stored in our database for station/object WD0REW. If no packets are shown the sender has not sent any weather packets the latest 10 day(s).
| Time | Temp. | Humidity | Pressure | Rain* | Wind** | Luminosity | Snow |
|---|---|---|---|---|---|---|---|
| 1777946377 | 21.67° C | 55% | 1007.1 hPa | 0 mm | - | 0 W/m² | - |
| 1777946074 | 21.67° C | 56% | 1007 hPa | 0 mm | - | 0 W/m² | - |
| 1777945771 | 22.22° C | 55% | 1006.9 hPa | 0 mm | - | 0 W/m² | - |
| 1777945468 | 22.22° C | 55% | 1006.8 hPa | 0 mm | - | 0 W/m² | - |
| 1777945165 | 22.22° C | 55% | 1006.9 hPa | 0 mm | - | 0 W/m² | - |
| 1777944862 | 22.22° C | 54% | 1006.6 hPa | 0 mm | - | 0 W/m² | - |
| 1777944560 | 22.22° C | 53% | 1006.4 hPa | 0 mm | - | 0 W/m² | - |
| 1777944258 | 22.22° C | 53% | 1006.5 hPa | 0 mm | - | 0 W/m² | - |
| 1777943954 | 22.22° C | 53% | 1006.5 hPa | 0 mm | - | 0 W/m² | - |
| 1777943650 | 22.78° C | 52% | 1006.2 hPa | 0 mm | - | 0 W/m² | - |
| 1777943347 | 22.78° C | 52% | 1006.3 hPa | 0 mm | - | 1 W/m² | - |
| 1777943043 | 22.78° C | 51% | 1006.1 hPa | 0 mm | - | 2 W/m² | - |
| 1777942739 | 23.33° C | 50% | 1006.2 hPa | 0 mm | - | 3 W/m² | - |
| 1777942435 | 23.33° C | 49% | 1006.1 hPa | 0 mm | - | 4 W/m² | - |
| 1777942133 | 23.33° C | 49% | 1006 hPa | 0 mm | - | 6 W/m² | - |
| 1777941829 | 23.33° C | 48% | 1006.1 hPa | 0 mm | - | 8 W/m² | - |
| 1777941527 | 23.89° C | 48% | 1006.2 hPa | 0 mm | - | 10 W/m² | - |
| 1777941224 | 23.89° C | 48% | 1006.2 hPa | 0 mm | - | 14 W/m² | - |
| 1777940920 | 23.89° C | 48% | 1006.1 hPa | 0 mm | - | 17 W/m² | - |
| 1777940617 | 23.89° C | 48% | 1005.9 hPa | 0 mm | - | 17 W/m² | - |
| 1777940315 | 23.89° C | 47% | 1005.9 hPa | 0 mm | - | 16 W/m² | - |
| 1777940012 | 24.44° C | 46% | 1006 hPa | 0 mm | - | 18 W/m² | - |
| 1777939709 | 24.44° C | 46% | 1005.8 hPa | 0 mm | - | 24 W/m² | - |
| 1777939407 | 24.44° C | 46% | 1006 hPa | 0 mm | - | 26 W/m² | - |
| 1777939103 | 24.44° C | 45% | 1006.1 hPa | 0 mm | - | 25 W/m² | - |
* Rain latest hour (hover to see other rain measurements)
** Current wind speed in m/s (hover to see current wind gust speed)